TimeMST,TemperatureF,Dew PointF,Humidity,Sea Level PressureIn,VisibilityMPH,Wind Direction,Wind SpeedMPH,Gust SpeedMPH,PrecipitationIn,Events,Conditions,WindDirDegrees,DateUTC
12:35 AM,-9.4,-14.8,77,30.18,10.0,North,6.9,-,N/A,,Clear,360,2013-01-02 07:35:00
1:15 AM,-7.6,-11.2,84,30.17,10.0,North,8.1,-,N/A,,Clear,10,2013-01-02 08:15:00
1:35 AM,-7.6,-11.2,84,30.17,10.0,North,6.9,-,N/A,,Clear,360,2013-01-02 08:35:00
1:55 AM,-7.6,-14.8,71,30.18,10.0,North,6.9,-,N/A,,Clear,360,2013-01-02 08:55:00
2:15 AM,-11.2,-13.0,92,30.17,10.0,North,8.1,-,N/A,,Clear,360,2013-01-02 09:15:00
2:35 AM,-9.4,-13.0,84,30.18,10.0,North,8.1,-,N/A,,Clear,360,2013-01-02 09:35:00
2:55 AM,-9.4,-11.2,92,30.17,10.0,North,6.9,-,N/A,,Clear,10,2013-01-02 09:55:00
3:15 AM,-9.4,-14.8,77,30.17,10.0,North,8.1,-,N/A,,Clear,10,2013-01-02 10:15:00
3:35 AM,-9.4,-11.2,92,30.17,10.0,North,4.6,-,N/A,,Clear,360,2013-01-02 10:35:00
3:55 AM,-9.4,-14.8,77,30.16,10.0,ENE,5.8,-,N/A,,Clear,60,2013-01-02 10:55:00
4:15 AM,-7.6,-9.4,92,30.17,10.0,NNE,6.9,-,N/A,,Clear,30,2013-01-02 11:15:00
4:35 AM,-9.4,-18.4,65,30.17,10.0,NNE,4.6,-,N/A,,Clear,20,2013-01-02 11:35:00
4:55 AM,-9.4,-9.4,100,30.17,10.0,North,4.6,-,N/A,,Clear,360,2013-01-02 11:55:00
5:55 AM,-13.0,-18.4,77,30.17,10.0,Calm,Calm,-,N/A,,Partly Cloudy,0,2013-01-02 12:55:00
6:15 AM,-9.4,-9.4,100,30.17,10.0,Calm,Calm,-,N/A,,Clear,0,2013-01-02 13:15:00
6:35 AM,-9.4,-18.4,65,30.18,10.0,North,6.9,-,N/A,,Clear,10,2013-01-02 13:35:00
7:15 AM,-14.8,-18.4,84,30.18,10.0,NNE,6.9,-,N/A,,Clear,20,2013-01-02 14:15:00
7:55 AM,-11.2,-16.6,77,30.18,10.0,Calm,Calm,-,N/A,,Clear,0,2013-01-02 14:55:00
8:15 AM,-5.8,-9.4,84,30.18,10.0,Calm,Calm,-,N/A,,Clear,0,2013-01-02 15:15:00
9:15 AM,5.0,1.4,85,30.19,10.0,North,5.8,-,N/A,,Clear,350,2013-01-02 16:15:00
9:35 AM,6.8,3.2,85,30.20,10.0,North,5.8,-,N/A,,Clear,360,2013-01-02 16:35:00
9:55 AM,10.4,6.8,85,30.20,10.0,North,9.2,-,N/A,,Clear,360,2013-01-02 16:55:00
10:15 AM,12.2,6.8,79,30.20,10.0,North,9.2,-,N/A,,Clear,360,2013-01-02 17:15:00
11:55 AM,19.4,3.2,49,30.15,10.0,North,5.8,-,N/A,,Clear,350,2013-01-02 18:55:00
1:35 PM,23.0,6.8,50,30.10,10.0,Calm,Calm,-,N/A,,Clear,0,2013-01-02 20:35:00
1:55 PM,24.8,6.8,46,30.10,10.0,Calm,Calm,-,N/A,,Clear,0,2013-01-02 20:55:00
2:15 PM,24.8,5.0,43,30.10,10.0,NNE,5.8,-,N/A,,Clear,20,2013-01-02 21:15:00
2:35 PM,24.8,6.8,46,30.09,10.0,North,5.8,-,N/A,,Clear,10,2013-01-02 21:35:00
2:55 PM,24.8,6.8,46,30.09,10.0,North,5.8,-,N/A,,Clear,10,2013-01-02 21:55:00
3:35 PM,24.8,6.8,46,30.10,10.0,NNW,5.8,-,N/A,,Clear,340,2013-01-02 22:35:00
3:55 PM,23.0,5.0,46,30.10,10.0,NNW,6.9,-,N/A,,Clear,340,2013-01-02 22:55:00
4:55 PM,15.8,1.4,53,30.11,10.0,North,6.9,-,N/A,,Clear,360,2013-01-02 23:55:00
5:35 PM,8.6,-0.4,67,30.11,10.0,North,8.1,-,N/A,,Clear,350,2013-01-03 00:35:00
5:55 PM,8.6,-0.4,67,30.12,10.0,North,10.4,-,N/A,,Clear,350,2013-01-03 00:55:00
6:15 PM,10.4,-0.4,62,30.13,10.0,North,8.1,-,N/A,,Clear,10,2013-01-03 01:15:00
6:35 PM,6.8,-2.2,67,30.14,10.0,NNE,9.2,-,N/A,,Mostly Cloudy,30,2013-01-03 01:35:00
6:55 PM,6.8,-0.4,72,30.15,10.0,NE,3.5,-,N/A,,Overcast,50,2013-01-03 01:55:00
7:15 PM,6.8,-2.2,67,30.15,10.0,ENE,5.8,-,N/A,,Mostly Cloudy,60,2013-01-03 02:15:00
7:35 PM,3.2,-7.6,61,30.16,10.0,Calm,Calm,-,N/A,,Partly Cloudy,0,2013-01-03 02:35:00
7:55 PM,1.4,-0.4,92,30.16,10.0,NE,4.6,-,N/A,,Clear,40,2013-01-03 02:55:00
8:15 PM,-0.4,-9.4,66,30.16,10.0,North,9.2,-,N/A,,Clear,10,2013-01-03 03:15:00
8:35 PM,-0.4,-7.6,72,30.16,10.0,North,8.1,-,N/A,,Clear,10,2013-01-03 03:35:00
8:55 PM,-0.4,-5.8,78,30.17,10.0,North,5.8,-,N/A,,Clear,360,2013-01-03 03:55:00
9:15 PM,-0.4,-9.4,66,30.17,10.0,North,4.6,-,N/A,,Clear,360,2013-01-03 04:15:00
9:35 PM,-0.4,-4.0,85,30.18,10.0,North,4.6,-,N/A,,Clear,360,2013-01-03 04:35:00
9:55 PM,-2.2,-9.4,71,30.18,10.0,North,4.6,-,N/A,,Clear,360,2013-01-03 04:55:00
10:15 PM,-0.4,-2.2,92,30.19,10.0,North,3.5,-,N/A,,Clear,350,2013-01-03 05:15:00
10:35 PM,-0.4,-5.8,78,30.19,10.0,North,5.8,-,N/A,,Clear,360,2013-01-03 05:35:00
10:55 PM,-2.2,-9.4,71,30.20,10.0,North,6.9,-,N/A,,Clear,360,2013-01-03 05:55:00
11:15 PM,-5.8,-11.2,77,30.20,10.0,NNE,4.6,-,N/A,,Clear,20,2013-01-03 06:15:00
11:35 PM,-2.2,-4.0,92,30.21,10.0,North,4.6,-,N/A,,Clear,10,2013-01-03 06:35:00
11:55 PM,-2.2,-11.2,66,30.21,10.0,Calm,Calm,-,N/A,,Clear,0,2013-01-03 06:55:00